This is the latest recevied weather packets stored in our database for station/object EA4GRN-10. If no packets are shown the sender has not sent any weather packets the latest 10 day(s).
| Time | Temp. | Humidity | Pressure | Rain* | Wind** | Luminosity | Snow |
|---|---|---|---|---|---|---|---|
| 1788292666 | 28.89° C | 40% | 1017.8 hPa | - | - | - | - |
| 1788292542 | 29.44° C | 39% | 1017.7 hPa | - | - | - | - |
| 1788292427 | 28.89° C | 41% | 1017.7 hPa | - | - | - | - |
| 1788292305 | 27.22° C | 42% | 1017.7 hPa | - | - | - | - |
| 1788199020 | 36.67° C | 30% | 1015.4 hPa | - | - | - | - |
| 1788198123 | 36.11° C | 30% | 1015.5 hPa | - | - | - | - |
| 1788197223 | 36.67° C | 31% | 1015.4 hPa | - | - | - | - |
| 1788196322 | 36.67° C | 30% | 1015.4 hPa | - | - | - | - |
| 1788195422 | 36.67° C | 30% | 1015.4 hPa | - | - | - | - |
| 1788194522 | 37.22° C | 29% | 1015.6 hPa | - | - | - | - |
| 1788193622 | 37.22° C | 30% | 1015.7 hPa | - | - | - | - |
| 1788192722 | 36.67° C | 30% | 1015.7 hPa | - | - | - | - |
| 1788191821 | 36.67° C | 30% | 1015.9 hPa | - | - | - | - |
| 1788190921 | 37.78° C | 29% | 1015.9 hPa | - | - | - | - |
| 1788190021 | 36.11° C | 30% | 1016.1 hPa | - | - | - | - |
| 1788189164 | 36.67° C | 30% | 1016.2 hPa | - | - | - | - |
| 1788189121 | 36.67° C | 30% | 1016.2 hPa | - | - | - | - |
| 1788188221 | 39.44° C | 30% | 1016.3 hPa | - | - | - | - |
| 1788187321 | 38.89° C | 31% | 1016.3 hPa | - | - | - | - |
| 1788186420 | 38.89° C | 31% | 1016.4 hPa | - | - | - | - |
| 1788185520 | 39.44° C | 30% | 1016.6 hPa | - | - | - | - |
| 1788184620 | 38.89° C | 30% | 1016.8 hPa | - | - | - | - |
| 1788183720 | 38.89° C | 30% | 1016.9 hPa | - | - | - | - |
| 1788182820 | 38.33° C | 31% | 1017 hPa | - | - | - | - |
| 1788181920 | 38.89° C | 30% | 1017.2 hPa | - | - | - | - |
* Rain since midnight (hover to see other rain measurements)
** Current wind speed in m/s (hover to see current wind gust speed)